BREEZE-M DEB (TANK), 40260

Orbit data source: Space-Track

BREEZE-M DEB (TANK), 40260 is space debris in HEO originally from a launch on Sat, 27 Sep 2014 UTC launched from the Tyuratam Missile And Space Complex (TTMTR). Debris objects in space refer to the collection of defunct objects orbiting the Earth. Examples of debris include non-operational satellites, rocket bodies, and fragments generated from explosions, collisions, or faulty payload assembly.

Loading next visibility...
Identifier
40260, 2014-058C
Orbit
HEO
Country
Flag of CISCIS
Related business
Manufacturer
Khrunichev
Mission
Spacecraft
Bus & Motor
BRIZ TANK, Unknown motor
Mass
~1,000 kg wet, 1,000 kg dry
Launch date (UTC)
2014-09-27 (12 years ago)
Launch vehicle
Unknown
Launch site
Tyuratam Missile And Space Complex (TTMTR)
Object type
Payload
Rocket body
Debris
Shape & HBR
Torus, 2.0 m
Radar Cross Section
8.218 m², Large (>1 m²)

Expand to show TLE details & history
Last TLE update: 18 hours ago

TLE from 18 hours ago
0 BREEZE-M DEB (TANK)
1 40260U 14058C   26150.41240479 -.00000052  00000-0 -10169-2 0  9993
2 40260  45.2741 303.2891 7025518  55.5240 352.1617  2.27188603 96133
Epoch: 2026-05-30T09:53Z
TLE epoch observation values (Epoch: 2026-05-30T09:53:51.773Z)
Latitude
0.00014°
Longitude
-93.17134°
Altitude
2,490.421 km
Speed
8.578 km/s
True Right ascension
20h 12m 53s
True Declination
0° 00' 01"
Sunlit
Object was in daylight at epoch
Visualization orbit readout
Latitude
Unknown
Longitude
Unknown
Altitude
Unknown
Speed
Unknown
Apparent Right ascension
Unknown
Apparent Declination
Unknown
Sunlit
N/A
Visualization observer readout
Local Sidereal Time
13:36:35
Azimuth
Unknown
Elevation
Unknown
Doppler factor
Unknown
Orbital elements
Apogee altitude
35,238.436 km
Perigee altitude
892.582 km
Semi-major axis
24,443.646 km
Eccentricity
0.70255
Inclination
45.2741°
RAAN
303.2891°
Arg. of periapsis
55.524°
True anomaly
304.93078°
Mean anomaly
352.1617°
Eccentric anomaly
335.41397°
Mean motion
0.56793 °/min
Orbital period
633.88 mins
BSTAR
-0.0010169
Loading maneuver chart data...
Computing Atmospheric mass density...
Loading historical data...
Loading historical data...
Loading historical data...
Loading historical data...
Loading historical data...
Loading historical data...
Loading historical data...
Other satellites on launch #58 in the year 2014 (2014-09-27 UTC)

Documentation

Showing up to 5 results
|